Location: Newark
(34.9500°N, 139.9667°E)
Time: 07:58:20
(UTC+00:00)

Vanguard 2 Rocket - Pass Details

Date: 15 December 2019
Orbit: 554 x 3326 km, 32.9° (Epoch: 20 January)

Event Time Altitude Azimuth Distance (km) Brightness Sun altitude
Rises 04:28:04 0° 213° (SSW) 7,196 12.8 25.9°
Reaches altitude 10° 04:33:30 10° 205° (SSW) 6,266 13.1 25.4°
Maximum altitude 04:50:45 37° 147° (SSE) 4,105 10.7 23.5°
Drops below altitude 10° 05:04:16 10° 88° (E) 4,988 10.4 21.9°
Sets 05:07:56 0° 80° (E) 5,648 10.5 21.4°
